STARLINK-3100, 49144

Orbit data source: Space-Track

STARLINK-3100, 49144 is a payload satellite owned by SpaceX/Seattle (US) in LEO that was launched on Tue, 14 Sep 2021 UTC via an FALCON 9 launch vehicle from the Air Force Western Test Range (AFWTR). Payload-class satellites include a variety of spacecraft equipped with specific instruments for various scientific and technological missions. These include communications satellites like Starlink; space stations such as the ISS; scientific satellites like the Hubble; Earth observation satellites from companies like Planet Labs, Umbra, and HawkEye 360; GPS; miniature CubeSats for education and research; and military/defense satellites.

Loading next visibility...
Identifier
49144, 2021-082Q
Orbit
LEO
Country
Flag of USUS
Related business
Manufacturer
SpaceX/Seattle
Mission
Operational Commercial Communications
Bus & Motor
STARLINK, Unknown motor
Mass
297 kg wet, ~275 kg dry
Launch date (UTC)
2021-09-14 (4 years ago)
Launch vehicle
FALCON 9
Launch site
Air Force Western Test Range (AFWTR)
Object type
Payload
Rocket body
Debris
Shape & HBR
Box + 1 Pan, 10.1 m
Radar Cross Section
13.562 m², Large (>1 m²)

Expand to show TLE details & history
Last TLE update: 6 hours ago

TLE from 6 hours ago
0 STARLINK-3100
1 49144U 21082Q   25310.79634001  .00002258  00000-0  19705-3 0  9998
2 49144  69.9985 244.2976 0003036 273.8522  86.2290 14.98317849227579
Epoch: 2025-11-06T19:06Z
TLE epoch observation values (Epoch: 2025-11-06T19:06:43.776Z)
Latitude
-0.00004°
Longitude
-88.63433°
Altitude
574.379 km
Speed
7.574 km/s
True Right ascension
16h 17m 11s
True Declination
0° 00' 00"
Sunlit
Object was in daylight at epoch
Visualization orbit readout
Latitude
Unknown
Longitude
Unknown
Altitude
Unknown
Speed
Unknown
Apparent Right ascension
Unknown
Apparent Declination
Unknown
Sunlit
N/A
Visualization observer readout
Local Sidereal Time
21:10:11
Azimuth
Unknown
Elevation
Unknown
Doppler factor
Unknown
Orbital elements
Apogee altitude
572.151 km
Perigee altitude
567.932 km
Semi-major axis
6,948.179 km
Eccentricity
0.0003
Inclination
69.9985°
RAAN
244.2976°
Arg. of periapsis
273.8522°
True anomaly
86.26372°
Mean anomaly
86.229°
Eccentric anomaly
86.24636°
Mean motion
3.74746 °/min
Orbital period
96.07 mins
BSTAR
0.00019705
Loading maneuver chart data...
Computing Atmospheric mass density...
Loading historical data...
Loading historical data...
Loading historical data...
Loading historical data...
Loading historical data...
Loading historical data...
Loading historical data...

Documentation

Showing up to 5 results
|